カタログに戻る

STARLINK-3105

運用中通信VLEO
NORAD 49440·PAYLOAD·🇺🇸 United States

打ち上げ Nov 13, 2021 から Cape Canaveral Space Force Station

Loading…

次のパス (今後24時間)

TLE

最新Source: CelesTrak SupGP

元期: Sep 14, 2026, 21:06 UTC

1 49440C 21104AJ  26257.87965278  .00410530  00000+0  13209-1 0  2578
2 49440  53.1607  77.6023 0001513 100.0133  53.2233 15.31478980    13

AllMySatでSTARLINK-3105をリアルタイム追跡

Download on the App Store